User: anonymous   Login
Location: Caltech
(34.1382°N, 118.1253°W)
Time: 10:13:04
(UTC-07:00)
Language:

ADEOS II - Orbit

View from above orbital plane
View from above orbital plane
View from above satellite
View from above satellite

Ground track
Ground track

The orbit data is extracted from the following two-line orbital elements,

1 27597U 02056A   16274.52601050  .00000088  00000-0  52953-4 0  9996
2 27597  98.3338 249.6452 0001824  52.5954 307.5393 14.27236831718387
Epoch (UTC): 30 September 2016 12:37:27
Eccentricity: 0.0001824
inclination: 98.3338°
perigee height: 799 km
apogee height: 802 km
right ascension of ascending node: 249.6452°
argument of perigee: 52.5954°
revolutions per day: 14.27236831
mean anomaly at epoch: 307.5393°
orbit number at epoch: 71838

The dashed part of the orbit path shows where the satellite is in the earth's shadow,  

DLR